Location: Mladá Boleslav
(50.4134°N, 14.9084°E)
Time: 17:00:53
(UTC+02:00)

KKS-1 - Pass Details

Date: 02 June 2024
Orbit: 626 x 640 km, 98.1° (Epoch: 20 June)

Event Time Altitude Azimuth Distance (km) Brightness Sun altitude
Rises 02:16:58 0° 359° (N) 2,938 ? -15.3°
Reaches altitude 10° 02:20:29 10° 329° (NNW) 2,021 ? -15.1°
Maximum altitude 02:22:09 12° 306° (NW) 1,883 ? -15.0°
Drops below altitude 10° 02:23:49 10° 284° (WNW) 2,013 ? -14.9°
Enters shadow 02:26:05 - 261° (W) 2,533 ? -14.8°
